period_start,C,m1,H,J0,J1,J2,J3,J4,J5,JA,JB,JC,JD,JJ,JK,JN,#
2017-10-18 00:01:52,0.02,0.28,0.00,18.73,22.34,25.63,14.39,47.16,1031.76,2051.01,3402.17,3072.29,3456.00,599.93,613.62,31.17,0000 0000 0000 0000 000000
2017-10-18 00:06:54,0.00,0.28,0.00,18.74,22.34,25.62,14.38,47.00,1031.76,2051.04,3402.02,3072.18,3456.00,600.13,613.84,31.22,0000 0000 0000 0000 000000
2017-10-18 00:11:55,0.00,0.28,0.00,18.75,22.34,25.60,14.49,47.15,1031.74,2051.03,3401.99,3072.06,3456.00,600.38,614.08,31.27,0000 0000 0000 0000 000000
2017-10-18 00:16:56,-0.00,0.28,0.00,18.73,22.34,25.59,14.36,47.12,1031.73,2051.04,3401.97,3072.02,3455.97,599.94,613.69,31.32,0000 0000 0000 0000 000000
2017-10-18 00:21:57,0.00,0.28,0.00,18.72,22.34,25.60,14.41,47.16,1031.74,2051.04,3401.81,3072.01,3455.84,600.24,614.04,31.37,0000 0000 0000 0000 000000
2017-10-18 00:26:59,0.02,0.29,0.00,18.64,22.33,25.54,14.32,47.00,1031.75,2051.03,3401.09,3072.00,3455.14,600.03,613.97,31.42,0000 0000 0000 0000 000000
2017-10-18 00:32:00,0.02,0.29,0.00,18.64,22.32,25.35,14.33,47.06,1031.74,2051.16,3401.00,3072.00,3455.04,599.70,613.57,31.47,0000 0000 0000 0000 000000
2017-10-18 00:37:01,0.02,0.29,0.00,18.65,22.31,25.23,14.37,46.99,1031.75,2051.43,3400.99,3072.00,3455.03,600.06,614.09,31.52,0000 0000 0000 0000 000000
2017-10-18 00:42:02,0.03,0.29,0.00,18.66,22.29,25.18,14.33,47.00,1031.71,2051.85,3400.71,3072.00,3455.00,599.78,613.59,31.57,0000 0000 0000 0000 000000
2017-10-18 00:47:04,0.01,0.29,0.00,18.62,22.29,25.13,14.34,47.08,1031.54,2051.91,3400.33,3072.00,3455.01,599.82,613.69,31.62,0000 0000 0000 0000 000000
2017-10-18 00:52:05,0.00,0.29,0.00,18.64,22.27,25.09,14.35,47.05,1031.39,2051.96,3400.20,3072.00,3455.00,600.10,613.92,31.67,0000 0000 0000 0000 000000
2017-10-18 00:57:07,0.00,0.29,0.00,18.69,22.26,25.08,14.24,47.03,1031.33,2051.98,3400.13,3072.00,3455.00,599.59,613.33,31.72,0000 0000 0000 0000 000000
2017-10-18 01:02:08,0.00,0.29,0.00,18.68,22.24,25.05,14.34,47.02,1031.29,2051.99,3400.05,3072.00,3455.00,599.97,613.56,31.77,0000 0000 0000 0000 000000
2017-10-18 01:07:09,0.00,0.29,0.00,18.69,22.24,25.06,14.36,47.01,1031.28,2051.99,3400.01,3072.00,3455.00,599.64,613.27,31.82,0000 0000 0000 0000 000000
2017-10-18 01:12:10,0.00,0.29,0.00,18.70,22.22,25.03,14.37,47.02,1031.27,2051.99,3400.00,3072.00,3455.00,599.85,613.42,31.87,0000 0000 0000 0000 000000
2017-10-18 01:17:11,0.00,0.29,0.00,18.78,22.22,25.01,14.28,46.85,1031.27,2051.99,3400.00,3072.01,3455.00,600.14,613.51,31.92,0000 0000 0000 0000 000000
2017-10-18 01:22:13,0.00,0.29,0.00,18.78,22.20,25.02,14.34,46.95,1031.27,2051.99,3400.00,3072.00,3454.99,599.91,613.11,31.97,0000 0000 0000 0000 000000
2017-10-18 01:27:14,0.00,0.29,0.00,18.81,22.19,25.02,14.32,47.02,1031.27,2051.99,3399.99,3072.00,3454.97,600.09,613.30,32.02,0000 0000 0000 0000 000000
2017-10-18 01:32:15,0.00,0.29,0.00,18.83,22.19,25.00,14.34,46.91,1031.26,2051.99,3399.97,3072.00,3454.96,600.03,613.28,32.07,0000 0000 0000 0000 000000
2017-10-18 01:37:16,0.01,0.29,0.00,18.91,22.17,24.97,14.27,47.10,1031.25,2051.99,3399.73,3072.00,3454.75,600.09,613.24,32.12,0000 0000 0000 0000 000000
2017-10-18 01:42:18,0.01,0.29,0.00,18.91,22.17,24.97,14.33,47.00,1031.24,2051.99,3399.27,3072.00,3454.36,599.97,613.05,32.17,0000 0000 0000 0000 000000
2017-10-18 01:47:19,0.00,0.29,0.00,18.95,22.17,24.96,14.26,47.04,1031.24,2052.00,3399.01,3072.00,3454.07,599.96,612.97,32.22,0000 0000 0000 0000 000000
2017-10-18 01:52:20,0.01,0.29,0.00,18.96,22.17,24.98,14.31,46.97,1031.19,2052.00,3398.66,3071.97,3454.02,600.17,613.07,32.27,0000 0000 0000 0000 000000
2017-10-18 01:57:21,0.00,0.29,0.00,19.01,22.16,25.00,14.31,46.80,1031.18,2052.00,3398.18,3071.93,3453.99,599.69,612.52,32.32,0000 0000 0000 0000 000000
2017-10-18 02:02:23,0.00,0.29,0.00,19.03,22.16,24.99,14.37,46.92,1031.22,2052.00,3398.03,3071.90,3453.98,600.35,613.18,32.37,0000 0000 0000 0000 000000
2017-10-18 02:07:24,0.03,0.29,0.00,19.05,22.17,25.01,14.36,47.08,1031.24,2052.00,3397.99,3071.32,3453.44,600.28,613.11,32.43,0000 0000 0000 0000 000000
2017-10-18 02:12:26,0.01,0.29,0.00,19.06,22.17,25.04,14.17,47.01,1031.26,2052.00,3397.67,3071.03,3453.02,599.63,612.47,32.48,0000 0000 0000 0000 000000
2017-10-18 02:17:27,0.00,0.30,0.00,19.10,22.19,25.09,14.30,46.77,1031.26,2051.99,3397.09,3071.00,3453.00,599.64,612.61,32.53,0000 0000 0000 0000 000000
2017-10-18 02:22:28,0.00,0.30,0.00,19.11,22.21,25.07,14.27,46.87,1031.26,2051.99,3397.00,3071.00,3452.96,599.72,612.38,32.58,0000 0000 0000 0000 000000
2017-10-18 02:27:30,0.01,0.30,0.00,19.13,22.22,25.13,14.32,46.82,1031.26,2051.97,3396.95,3071.00,3452.47,600.12,612.76,32.63,0000 0000 0000 0000 000000
2017-10-18 02:32:31,0.01,0.30,0.00,19.12,22.24,25.16,14.38,47.12,1031.09,2051.95,3396.30,3070.95,3452.04,600.52,613.29,32.68,0000 0000 0000 0000 000000
2017-10-18 02:37:32,-0.03,0.30,0.00,19.15,22.26,25.17,14.37,47.10,1031.01,2051.59,3396.00,3070.59,3452.00,600.08,612.32,32.73,0000 0000 0000 0000 000000
2017-10-18 02:42:34,0.00,0.30,0.00,19.15,22.28,25.23,14.28,47.08,1031.21,2051.39,3395.95,3070.09,3451.90,599.99,612.60,32.78,0000 0000 0000 0000 000000
2017-10-18 02:47:35,0.01,0.30,0.00,19.16,22.30,25.23,14.26,46.85,1031.21,2051.18,3395.31,3070.00,3451.26,599.97,612.50,32.83,0000 0000 0000 0000 000000
2017-10-18 02:52:36,-0.01,0.30,0.00,19.16,22.32,25.27,14.34,46.96,1031.19,2051.07,3395.01,3070.00,3451.01,600.10,612.51,32.88,0000 0000 0000 0000 000000
2017-10-18 02:57:38,0.00,0.30,0.00,19.18,22.34,25.31,14.33,47.08,1031.23,2051.02,3394.99,3069.98,3450.99,599.98,612.48,32.93,0000 0000 0000 0000 000000
2017-10-18 03:02:39,0.02,0.30,0.00,19.17,22.36,25.29,14.33,46.99,1031.19,2051.01,3394.50,3069.74,3450.72,600.11,612.61,32.98,0000 0000 0000 0000 000000
2017-10-18 03:07:40,0.02,0.30,0.00,19.19,22.38,25.34,14.26,46.95,1030.99,2051.00,3394.03,3069.12,3450.05,600.06,612.48,33.03,0000 0000 0000 0000 000000
2017-10-18 03:12:41,0.00,0.30,0.00,19.17,22.39,25.38,14.31,47.08,1030.88,2051.00,3393.99,3069.02,3450.00,600.20,612.39,33.08,0000 0000 0000 0000 000000
2017-10-18 03:17:42,0.00,0.30,0.00,19.17,22.42,25.50,14.29,46.91,1030.81,2050.99,3393.81,3069.00,3449.93,600.01,612.32,33.13,0000 0000 0000 0000 000000
2017-10-18 03:22:43,0.02,0.30,0.00,19.16,22.43,25.53,14.25,46.89,1030.80,2050.99,3393.12,3068.99,3449.29,599.94,612.28,33.18,0000 0000 0000 0000 000000
2017-10-18 03:27:44,0.01,0.30,0.00,19.20,22.44,25.54,14.29,46.80,1030.82,2050.98,3393.00,3068.82,3449.02,599.91,612.07,33.23,0000 0000 0000 0000 000000
2017-10-18 03:32:45,0.01,0.30,0.00,19.18,22.46,25.58,14.37,46.98,1030.80,2050.95,3392.99,3068.53,3449.00,600.04,612.25,33.28,0000 0000 0000 0000 000000
2017-10-18 03:37:46,0.01,0.30,0.00,19.20,22.47,25.65,14.21,46.98,1030.80,2050.93,3392.44,3068.06,3448.93,599.89,612.15,33.33,0000 0000 0000 0000 000000
2017-10-18 03:42:48,-0.01,0.30,0.00,19.18,22.48,25.64,14.33,46.92,1030.93,2050.71,3392.04,3068.01,3448.46,600.42,612.79,33.38,0000 0000 0000 0000 000000
2017-10-18 03:47:49,-0.02,0.30,0.00,19.20,22.49,25.67,14.32,46.92,1031.07,2050.35,3392.00,3068.00,3448.04,599.97,612.37,33.44,0000 0000 0000 0000 000000
2017-10-18 03:52:50,-0.02,0.30,0.00,19.18,22.50,25.64,14.32,46.92,1031.16,2050.15,3391.92,3068.00,3448.00,600.16,612.61,33.49,0000 0000 0000 0000 000000
2017-10-18 03:57:51,0.01,0.30,0.00,19.16,22.52,25.70,14.36,46.82,1031.24,2050.03,3391.23,3067.98,3447.99,600.26,612.49,33.54,0000 0000 0000 0000 000000
2017-10-18 04:02:53,0.01,0.30,0.00,19.14,22.52,25.75,14.39,47.06,1031.23,2050.03,3391.01,3067.95,3447.83,600.08,612.82,33.59,0000 0000 0000 0000 000000
2017-10-18 04:07:54,0.02,0.30,0.00,19.15,22.52,25.77,14.33,46.83,1031.20,2050.02,3391.00,3067.55,3447.13,600.14,612.66,33.64,0000 0000 0000 0000 000000
2017-10-18 04:12:55,0.00,0.30,0.00,19.15,22.54,25.79,14.34,47.03,1031.26,2050.00,3390.99,3067.21,3447.00,600.06,612.59,33.69,0000 0000 0000 0000 000000
2017-10-18 04:17:57,0.00,0.30,0.00,19.14,22.54,25.79,14.28,46.77,1031.26,2050.00,3390.80,3067.08,3447.00,600.08,612.64,33.74,0000 0000 0000 0000 000000
2017-10-18 04:22:58,0.01,0.30,0.00,19.12,22.54,25.81,14.40,46.95,1031.26,2050.00,3390.11,3067.02,3446.97,600.14,612.76,33.79,0000 0000 0000 0000 000000
2017-10-18 04:27:59,0.00,0.30,0.00,19.15,22.54,25.79,14.38,46.88,1031.26,2050.00,3390.00,3067.00,3446.70,600.33,612.85,33.84,0000 0000 0000 0000 000000
2017-10-18 04:33:00,0.00,0.30,0.00,19.12,22.54,25.83,14.31,46.81,1031.27,2050.00,3390.00,3067.01,3446.35,599.67,612.31,33.89,0000 0000 0000 0000 000000
2017-10-18 04:38:02,0.00,0.30,0.00,19.11,22.55,25.78,14.24,46.88,1031.27,2050.00,3389.97,3067.00,3446.06,599.75,612.36,33.94,0000 0000 0000 0000 000000
2017-10-18 04:43:03,0.00,0.30,0.00,19.09,22.54,25.80,14.31,46.74,1031.27,2050.00,3389.66,3067.00,3446.01,600.02,612.97,33.99,0000 0000 0000 0000 000000
2017-10-18 04:48:04,0.00,0.30,0.00,19.13,22.55,25.80,14.32,46.92,1031.27,2050.00,3389.09,3066.98,3446.00,600.34,612.93,34.04,0000 0000 0000 0000 000000
2017-10-18 04:53:05,0.00,0.30,0.00,19.09,22.55,25.79,14.34,46.88,1031.27,2050.00,3389.00,3066.99,3446.00,599.82,612.47,34.09,0000 0000 0000 0000 000000
2017-10-18 04:58:06,0.00,0.30,0.00,19.10,22.55,25.80,14.37,46.73,1031.28,2050.00,3388.99,3066.97,3445.98,600.21,612.86,34.14,0000 0000 0000 0000 000000
2017-10-18 05:03:07,0.01,0.30,0.00,19.09,22.55,25.85,14.30,46.87,1031.27,2049.99,3388.90,3066.94,3445.74,599.82,612.52,34.19,0000 0000 0000 0000 000000
2017-10-18 05:08:08,0.01,0.30,0.00,19.13,22.55,25.81,14.38,46.83,1031.27,2049.99,3388.36,3066.79,3445.23,600.13,612.75,34.24,0000 0000 0000 0000 000000
2017-10-18 05:13:09,0.01,0.31,0.00,19.09,22.55,25.80,14.34,46.92,1031.27,2049.99,3388.03,3066.41,3445.03,600.00,612.65,34.29,0000 0000 0000 0000 000000
2017-10-18 05:18:11,0.00,0.31,0.00,19.07,22.55,25.82,14.36,47.03,1031.23,2049.99,3388.00,3066.35,3445.02,600.27,612.95,34.34,0000 0000 0000 0000 000000
2017-10-18 05:23:12,-0.01,0.31,0.00,19.04,22.54,25.82,14.35,46.90,1031.12,2049.99,3388.00,3066.39,3445.00,600.16,612.81,34.40,0000 0000 0000 0000 000000
2017-10-18 05:28:13,0.00,0.31,0.00,19.09,22.54,25.77,14.38,47.24,1031.09,2049.99,3387.99,3066.27,3445.00,600.03,612.63,34.45,0000 0000 0000 0000 000000
2017-10-18 05:33:14,0.00,0.31,0.00,19.04,22.54,25.78,14.30,47.02,1031.21,2049.99,3387.88,3066.08,3445.00,599.45,612.24,34.50,0000 0000 0000 0000 000000
2017-10-18 05:38:16,0.01,0.31,0.00,19.04,22.54,25.77,14.25,47.03,1031.23,2049.99,3387.44,3066.08,3444.96,599.75,612.60,34.55,0000 0000 0000 0000 000000
2017-10-18 05:43:17,0.00,0.31,0.00,19.02,22.54,25.82,14.26,46.99,1031.21,2049.99,3387.03,3066.03,3444.95,599.79,612.83,34.60,0000 0000 0000 0000 000000
2017-10-18 05:48:19,0.00,0.31,0.00,19.04,22.53,25.81,14.33,46.98,1031.21,2049.99,3387.00,3066.02,3444.64,600.12,613.00,34.65,0000 0000 0000 0000 000000
2017-10-18 05:53:20,0.00,0.31,0.00,18.99,22.52,25.83,14.33,47.09,1031.15,2049.99,3386.99,3066.01,3444.25,600.00,612.85,34.70,0000 0000 0000 0000 000000
2017-10-18 05:58:21,0.00,0.31,0.00,19.01,22.52,25.80,14.38,47.07,1031.17,2049.99,3386.94,3066.01,3444.03,600.28,613.06,34.75,0000 0000 0000 0000 000000
2017-10-18 06:03:22,0.00,0.31,0.00,18.97,22.52,25.78,14.30,46.99,1031.10,2049.99,3386.79,3066.00,3444.01,599.59,612.36,34.80,0000 0000 0000 0000 000000
2017-10-18 06:08:24,0.00,0.31,0.00,18.98,22.51,25.78,14.35,47.07,1031.22,2049.99,3386.39,3066.00,3444.00,599.87,612.83,34.85,0000 0000 0000 0000 000000
2017-10-18 06:13:25,0.00,0.31,0.00,18.93,22.50,25.79,14.35,47.01,1031.26,2049.99,3386.06,3066.00,3444.00,600.21,613.09,34.90,0000 0000 0000 0000 000000
2017-10-18 06:18:26,0.00,0.31,0.00,18.95,22.49,25.76,14.27,47.00,1031.26,2050.00,3386.01,3066.00,3444.00,599.60,612.80,34.95,0000 0000 0000 0000 000000
2017-10-18 06:23:27,0.00,0.31,0.00,18.92,22.49,25.75,14.33,47.14,1031.26,2050.01,3386.01,3066.00,3444.00,600.10,613.01,35.00,0000 0000 0000 0000 000000
2017-10-18 06:28:28,0.00,0.31,0.00,18.94,22.47,25.75,14.33,46.78,1031.27,2050.00,3386.00,3066.01,3444.00,599.83,612.86,35.05,0000 0000 0000 0000 000000
2017-10-18 06:33:29,0.00,0.31,0.00,18.88,22.47,25.73,14.33,47.03,1031.27,2050.01,3386.00,3066.00,3443.99,600.15,613.38,35.10,0000 0000 0000 0000 000000
2017-10-18 06:38:30,0.00,0.31,0.00,18.88,22.46,25.71,14.37,47.05,1031.27,2050.01,3385.97,3066.00,3443.98,599.81,613.06,35.15,0000 0000 0000 0000 000000
2017-10-18 06:43:32,0.00,0.31,0.00,18.87,22.44,25.70,14.32,46.94,1031.28,2050.04,3385.95,3066.00,3443.98,599.88,613.19,35.20,0000 0000 0000 0000 000000
2017-10-18 06:48:33,0.00,0.31,0.00,18.90,22.44,25.70,14.30,46.89,1031.29,2050.05,3385.74,3066.00,3443.97,599.97,613.12,35.25,0000 0000 0000 0000 000000
2017-10-18 06:53:34,0.01,0.31,0.00,18.85,22.42,25.67,14.41,46.88,1031.29,2050.05,3385.41,3066.00,3443.90,600.30,613.54,35.30,0000 0000 0000 0000 000000
2017-10-18 06:58:35,0.01,0.31,0.00,18.85,22.42,25.70,14.42,46.98,1031.34,2050.09,3385.05,3066.00,3443.91,600.12,613.24,35.36,0000 0000 0000 0000 000000
2017-10-18 07:03:36,0.00,0.31,0.00,18.85,22.40,25.67,14.39,46.92,1031.49,2050.12,3385.03,3066.00,3443.88,600.21,613.57,35.41,0000 0000 0000 0000 000000
2017-10-18 07:08:37,0.02,0.31,0.00,18.85,22.39,25.65,14.34,46.80,1031.67,2050.29,3385.01,3066.00,3443.89,599.99,613.52,35.46,0000 0000 0000 0000 000000
2017-10-18 07:13:39,0.01,0.31,0.00,18.80,22.39,25.65,14.38,47.01,1031.72,2050.52,3385.00,3066.00,3443.81,600.03,613.61,35.51,0000 0000 0000 0000 000000
2017-10-18 07:18:40,0.01,0.31,0.00,18.80,22.37,25.64,14.33,46.90,1031.73,2050.46,3384.99,3066.00,3443.49,600.08,613.69,35.56,0000 0000 0000 0000 000000
2017-10-18 07:23:41,0.00,0.31,0.00,18.82,22.37,25.63,14.38,46.93,1031.74,2050.41,3384.95,3066.00,3443.10,599.93,613.75,35.61,0000 0000 0000 0000 000000
2017-10-18 07:28:42,0.03,0.31,0.00,18.82,22.37,25.65,14.37,46.97,1031.74,2050.69,3384.83,3066.00,3443.04,600.30,613.87,35.66,0000 0000 0000 0000 000000
2017-10-18 07:33:43,0.02,0.31,0.00,18.78,22.35,25.61,14.36,46.95,1031.73,2050.82,3384.44,3066.00,3443.02,599.91,613.56,35.71,0000 0000 0000 0000 000000
2017-10-18 07:38:44,-0.00,0.32,0.00,18.76,22.34,25.59,14.29,46.91,1031.73,2050.91,3384.10,3066.00,3443.01,599.84,613.45,35.76,0000 0000 0000 0000 000000
2017-10-18 07:43:46,0.01,0.32,0.00,18.77,22.34,25.61,14.38,46.86,1031.73,2050.94,3384.02,3066.00,3443.00,600.10,613.62,35.81,0000 0000 0000 0000 000000
2017-10-18 07:48:47,0.00,0.32,0.00,18.75,22.33,25.59,14.32,46.83,1031.71,2050.94,3384.01,3066.00,3443.00,599.69,613.36,35.86,0000 0000 0000 0000 000000
2017-10-18 07:53:48,-0.00,0.32,0.00,18.77,22.32,25.60,14.40,46.85,1031.73,2050.96,3384.00,3066.00,3443.00,600.23,613.89,35.91,0000 0000 0000 0000 000000
2017-10-18 07:58:50,0.00,0.32,0.00,18.74,22.32,25.56,14.35,47.03,1031.75,2050.98,3384.00,3066.00,3443.00,599.90,613.75,35.96,0000 0000 0000 0000 000000
2017-10-18 08:03:51,0.00,0.32,0.00,18.78,22.31,25.56,14.32,46.83,1031.75,2050.99,3383.99,3066.00,3443.00,599.69,613.26,36.01,0000 0000 0000 0000 000000
2017-10-18 08:08:52,0.00,0.32,0.00,18.76,22.30,25.57,14.38,47.01,1031.73,2050.98,3383.98,3066.00,3443.00,599.83,613.60,36.06,0000 0000 0000 0000 000000
2017-10-18 08:13:54,0.00,0.32,0.00,18.71,22.29,25.57,14.43,46.94,1031.73,2050.99,3383.97,3066.00,3443.00,600.33,614.11,36.11,0000 0000 0000 0000 000000
2017-10-18 08:18:55,0.01,0.32,0.00,18.75,22.29,25.57,14.34,46.87,1031.74,2050.98,3383.57,3066.00,3442.98,599.97,613.63,36.16,0000 0000 0000 0000 000000
2017-10-18 08:23:56,0.01,0.32,0.00,18.71,22.29,25.57,14.34,46.92,1031.73,2050.99,3383.02,3065.98,3442.43,599.87,613.58,36.21,0000 0000 0000 0000 000000
2017-10-18 08:28:58,0.00,0.32,0.00,18.75,22.27,25.55,14.37,46.77,1031.70,2050.99,3382.95,3065.89,3442.05,600.27,613.95,36.26,0000 0000 0000 0000 000000
2017-10-18 08:33:59,-0.00,0.32,0.00,18.73,22.27,25.54,14.34,46.92,1031.64,2050.99,3382.79,3065.84,3442.04,599.96,613.64,36.32,0000 0000 0000 0000 000000
2017-10-18 08:39:00,0.01,0.32,0.00,18.73,22.27,25.51,14.29,46.88,1031.57,2050.99,3382.32,3065.71,3442.03,599.85,613.54,36.37,0000 0000 0000 0000 000000
2017-10-18 08:44:01,0.01,0.32,0.00,18.76,22.26,25.50,14.37,46.99,1031.67,2050.99,3382.05,3065.50,3442.00,599.90,613.50,36.42,0000 0000 0000 0000 000000
2017-10-18 08:49:02,0.00,0.32,0.00,18.72,22.25,25.50,14.42,46.94,1031.67,2050.99,3382.01,3065.25,3442.00,600.15,613.91,36.47,0000 0000 0000 0000 000000
2017-10-18 08:54:03,0.00,0.32,0.00,18.73,22.24,25.49,14.46,47.02,1031.68,2050.99,3382.00,3065.17,3442.00,600.47,614.22,36.52,0000 0000 0000 0000 000000
2017-10-18 08:59:05,0.00,0.32,0.00,18.73,22.24,25.48,14.41,47.02,1031.62,2051.00,3381.99,3065.07,3441.98,600.37,614.08,36.57,0000 0000 0000 0000 000000
2017-10-18 09:04:06,0.00,0.32,0.00,18.67,22.24,25.49,14.31,46.91,1031.70,2051.00,3381.98,3065.03,3441.98,599.58,613.53,36.62,0000 0000 0000 0000 000000
2017-10-18 09:09:07,-0.00,0.32,0.00,18.72,22.23,25.49,14.37,46.92,1031.73,2051.00,3381.92,3065.05,3441.96,599.60,613.52,36.67,0000 0000 0000 0000 000000
2017-10-18 09:14:08,0.01,0.32,0.00,18.68,22.22,25.49,14.39,47.08,1031.72,2051.01,3381.78,3065.02,3441.93,599.94,613.73,36.72,0000 0000 0000 0000 000000
2017-10-18 09:19:10,0.01,0.32,0.00,18.71,22.22,25.49,14.41,46.99,1031.74,2051.00,3381.31,3065.01,3441.62,600.19,614.03,36.77,0000 0000 0000 0000 000000
2017-10-18 09:24:11,0.01,0.32,0.00,18.71,22.22,25.48,14.35,46.96,1031.74,2051.00,3381.09,3065.01,3441.34,599.91,613.63,36.82,0000 0000 0000 0000 000000
2017-10-18 09:29:12,0.00,0.32,0.00,18.68,22.22,25.50,14.40,47.00,1031.74,2051.00,3381.01,3065.00,3441.06,600.01,613.92,36.87,0000 0000 0000 0000 000000
2017-10-18 09:34:14,-0.00,0.32,0.00,18.72,22.20,25.46,14.38,46.95,1031.73,2051.00,3381.01,3065.01,3441.06,599.89,613.70,36.92,0000 0000 0000 0000 000000
2017-10-18 09:39:15,0.00,0.32,0.00,18.66,22.19,25.49,14.35,46.69,1031.75,2051.01,3381.00,3065.00,3441.03,599.80,613.64,36.97,0000 0000 0000 0000 000000
2017-10-18 09:44:16,0.00,0.32,0.00,18.68,22.19,25.47,14.41,47.02,1031.75,2051.01,3381.00,3065.01,3441.05,600.24,614.09,37.02,0000 0000 0000 0000 000000
2017-10-18 09:49:17,0.00,0.32,0.00,18.65,22.19,25.47,14.31,46.85,1031.74,2051.01,3381.00,3065.00,3441.04,599.78,613.64,37.07,0000 0000 0000 0000 000000
2017-10-18 09:54:18,0.00,0.32,0.00,18.65,22.19,25.48,14.40,47.13,1031.74,2051.03,3381.00,3065.00,3441.03,600.24,614.13,37.12,0000 0000 0000 0000 000000
2017-10-18 09:59:19,0.00,0.32,0.00,18.66,22.17,25.44,14.40,46.94,1031.72,2051.05,3381.00,3065.00,3441.02,600.06,613.91,37.17,0000 0000 0000 0000 000000
2017-10-18 10:04:20,-0.00,0.32,0.00,18.67,22.17,25.43,14.34,46.81,1031.65,2051.03,3380.95,3065.00,3441.00,599.99,613.87,37.22,0000 0000 0000 0000 000000
2017-10-18 10:09:22,0.01,0.32,0.00,18.65,22.17,25.43,14.30,46.93,1031.63,2051.04,3380.61,3064.99,3440.99,599.70,613.55,37.28,0000 0000 0000 0000 000000
2017-10-18 10:14:23,0.00,0.32,0.00,18.61,22.15,25.44,14.42,46.95,1031.50,2051.02,3380.30,3064.96,3440.98,600.41,614.26,37.33,0000 0000 0000 0000 000000
2017-10-18 10:19:24,0.00,0.32,0.00,18.63,22.14,25.41,14.40,47.02,1031.51,2051.04,3380.17,3064.97,3440.95,600.00,613.72,37.38,0000 0000 0000 0000 000000
2017-10-18 10:24:25,0.01,0.32,0.00,18.59,22.14,25.42,14.37,47.10,1031.48,2051.09,3380.05,3064.93,3440.78,600.04,613.94,37.43,0000 0000 0000 0000 000000
2017-10-18 10:29:26,0.01,0.32,0.00,18.58,22.12,25.45,14.39,47.13,1031.49,2051.14,3380.01,3064.85,3440.44,599.75,613.80,37.48,0000 0000 0000 0000 000000
2017-10-18 10:34:28,0.03,0.32,0.00,18.55,22.12,25.42,14.38,46.92,1031.37,2051.13,3379.86,3064.35,3440.07,600.15,614.18,37.53,0000 0000 0000 0000 000000
2017-10-18 10:39:29,0.02,0.33,0.00,18.58,22.12,25.40,14.40,47.07,1031.33,2051.38,3379.54,3064.07,3440.00,599.56,613.38,37.58,0000 0000 0000 0000 000000
2017-10-18 10:44:30,0.04,0.33,0.00,18.56,22.10,25.39,14.41,47.11,1031.41,2051.70,3379.27,3064.05,3440.00,600.25,614.23,37.63,0000 0000 0000 0000 000000
2017-10-18 10:49:31,-0.01,0.33,0.00,18.56,22.09,25.38,14.35,47.11,1031.35,2051.66,3379.04,3064.02,3439.97,599.78,613.74,37.68,0000 0000 0000 0000 000000
2017-10-18 10:54:33,0.02,0.33,0.00,18.55,22.08,25.35,14.29,47.03,1031.36,2051.80,3379.00,3064.00,3439.84,599.97,613.87,37.73,0000 0000 0000 0000 000000
2017-10-18 10:59:34,0.01,0.33,0.00,18.58,22.07,25.32,14.32,47.06,1031.41,2051.91,3378.94,3063.98,3439.30,600.10,613.97,37.78,0000 0000 0000 0000 000000
2017-10-18 11:04:36,0.03,0.33,0.00,18.51,22.07,25.34,14.37,46.99,1031.54,2051.95,3378.54,3063.66,3439.00,600.10,614.29,37.83,0000 0000 0000 0000 000000
2017-10-18 11:09:37,0.01,0.33,0.00,18.53,22.05,25.34,14.38,47.25,1031.63,2051.95,3378.06,3063.13,3438.99,600.10,614.22,37.88,0000 0000 0000 0000 000000
2017-10-18 11:14:38,0.00,0.33,0.00,18.54,22.04,25.33,14.39,47.13,1031.61,2051.96,3378.03,3063.06,3438.93,600.01,614.09,37.93,0000 0000 0000 0000 000000
2017-10-18 11:19:39,0.01,0.33,0.00,18.55,22.04,25.34,14.34,47.17,1031.62,2051.98,3378.00,3063.01,3438.27,599.72,613.72,37.98,0000 0000 0000 0000 000000
2017-10-18 11:24:41,0.00,0.33,0.00,18.50,22.03,25.31,14.31,47.08,1031.65,2051.98,3377.99,3063.00,3438.08,599.91,614.19,38.03,0000 0000 0000 0000 000000
2017-10-18 11:29:41,0.00,0.33,0.00,18.53,22.02,25.30,14.38,47.07,1031.64,2051.98,3377.98,3062.99,3438.05,599.61,613.76,38.08,0000 0000 0000 0000 000000
2017-10-18 11:34:43,0.00,0.33,0.00,18.48,22.02,25.31,14.28,46.98,1031.68,2051.98,3377.96,3062.98,3438.01,599.83,614.09,38.13,0000 0000 0000 0000 000000
2017-10-18 11:39:45,0.00,0.33,0.00,18.48,22.00,25.28,14.42,47.04,1031.61,2051.99,3377.93,3062.99,3438.00,600.15,614.46,38.18,0000 0000 0000 0000 000000
2017-10-18 11:44:46,0.00,0.33,0.00,18.51,21.99,25.27,14.38,47.01,1031.51,2051.99,3377.65,3062.98,3438.00,599.93,614.05,38.23,0000 0000 0000 0000 000000
2017-10-18 11:49:47,0.00,0.33,0.00,18.48,21.99,25.28,14.41,46.99,1031.51,2051.99,3377.27,3062.94,3437.99,600.59,614.77,38.29,0000 0000 0000 0000 000000
2017-10-18 11:54:48,0.00,0.33,0.00,18.48,21.99,25.27,14.42,47.03,1031.49,2051.99,3377.17,3062.91,3437.97,599.89,614.02,38.34,0000 0000 0000 0000 000000
2017-10-18 11:59:49,0.00,0.33,0.00,18.47,21.97,25.28,14.45,47.12,1031.49,2051.99,3377.04,3062.87,3437.97,600.40,614.47,38.39,0000 0000 0000 0000 000000
2017-10-18 12:04:50,0.01,0.33,0.00,18.50,21.97,25.26,14.46,47.14,1031.57,2051.99,3377.01,3062.61,3437.93,600.34,614.44,38.44,0000 0000 0000 0000 000000
2017-10-18 12:09:52,0.02,0.33,0.00,18.50,21.97,25.24,14.25,47.08,1031.54,2051.99,3377.00,3062.23,3437.64,599.57,613.71,38.49,0000 0000 0000 0000 000000
2017-10-18 12:14:53,0.00,0.34,0.00,18.46,21.95,25.24,14.37,47.11,1031.37,2051.99,3377.00,3062.00,3437.07,599.67,613.77,38.54,0000 0000 0000 0000 000000
2017-10-18 12:19:54,0.00,0.34,0.00,18.48,21.94,25.25,14.37,47.02,1031.33,2051.99,3376.99,3062.00,3437.00,600.14,614.21,38.59,0000 0000 0000 0000 000000
2017-10-18 12:24:55,0.00,0.34,0.00,18.45,21.94,25.19,14.34,47.13,1031.29,2051.99,3376.87,3061.99,3436.99,599.90,614.07,38.64,0000 0000 0000 0000 000000
2017-10-18 12:29:56,0.01,0.34,0.00,18.43,21.94,25.24,14.35,47.03,1031.28,2051.99,3376.45,3061.95,3436.99,600.04,614.14,38.69,0000 0000 0000 0000 000000
2017-10-18 12:34:57,0.00,0.34,0.00,18.46,21.93,25.23,14.40,47.02,1031.28,2051.99,3376.27,3061.94,3436.97,600.20,614.23,38.74,0000 0000 0000 0000 000000
2017-10-18 12:39:59,0.00,0.34,0.00,18.41,21.92,25.20,14.43,47.11,1031.28,2051.99,3376.07,3061.92,3436.95,600.33,614.40,38.79,0000 0000 0000 0000 000000
2017-10-18 12:45:00,0.00,0.34,0.00,18.40,21.92,25.21,14.35,47.19,1031.28,2052.01,3376.06,3061.92,3436.95,599.88,613.88,38.84,0000 0000 0000 0000 000000
2017-10-18 12:50:02,0.00,0.34,0.00,18.43,21.92,25.19,14.35,47.17,1031.31,2052.01,3376.03,3061.93,3436.89,599.74,613.80,38.89,0000 0000 0000 0000 000000
2017-10-18 12:55:03,0.00,0.34,0.00,18.43,21.90,25.20,14.33,46.90,1031.29,2052.01,3376.01,3061.88,3436.86,599.98,614.10,38.94,0000 0000 0000 0000 000000